Location: Dackenheim
(49.5215°N, 8.1854°E)
Time: 03:19:44
(UTC+00:00)

AO-85 - Pass Details

Date: 16 March 2026
Orbit: 507 x 686 km, 64.8° (Epoch: 12 April)

Event Time Altitude Azimuth Distance (km) Brightness Sun altitude
Exits shadow 04:16:40 24° 240° (WSW) 1,133 ? -14.1°
Maximum altitude 04:18:53 59° 313° (NW) 609 ? -13.7°
Drops below altitude 10° 04:22:43 10° 34° (NE) 1,741 ? -13.1°
Sets 04:24:54 0° 38° (NE) 2,623 ? -12.8°
